Home   Weather   Ottawa   Past weeks

Flag for Canada Past Weather in Ottawa, Ontario, Canada — Yesterday and Last 2 Weeks

39 °F

Drizzle. Low clouds.

Feels Like: 39 °F
Forecast: 33 / 42 °F
Wind: 2 mph from North

Location: Ottawa Int'L. Ont.

Current Time: Oct 28, 2016 at 3:40:50 PM

Latest Report: Oct 28, 2016 at 3:00 PM

Visibility: 8 mi

Pressure: 30.20 "Hg

Humidity: 93%

Dew Point: 37 °F

Location of OttawaLocation

Past Weather in Ottawa — Graph


Ottawa Temperature Yesterday

Maximum temperature yesterday: 37 °F (at 3:00 PM)
Minimum temperature yesterday: 27 °F (at 3:00 AM)
Average temperature yesterday: 32 °F

High & Low Weather Summary for the Past Weeks

High75 °F (Oct 18, 1:03 PM)100% (Oct 14, 5:00 AM)30.51 "Hg (Oct 14, 5:00 AM)
Low25 °F (Oct 14, 7:00 AM)32% (Oct 23, 3:00 PM)29.49 "Hg (Oct 18, 3:48 PM)
Average45 °F79%30.02 "Hg
* Reported Oct 13 2:00 PM — Oct 28 2:00 PM, Ottawa, Weather by CustomWeather, © 2016

Note: Actual official high and low records may vary slightly from our data, if they occured in-between our weather recording intervals... More about our weather records


Ottawa Weather History for the Previous 24 Hours

Scroll right to see more
Time TempWeatherWind HumidityBarometerVisibility
2:00 PM
Fri, Oct 28
37 °FDrizzle. Fog.7 mph100%30.20 "Hg3 mi
1:00 PM37 °FDrizzle. Fog.7 mph93%30.19 "Hg3 mi
12:00 PM36 °FDrizzle. Fog.6 mph100%30.19 "Hg4 mi
11:00 AM36 °FDrizzle. Fog.8 mph100%30.18 "Hg5 mi
10:00 AM36 °FDrizzle. Fog.8 mph93%30.16 "Hg4 mi
9:00 AM36 °FDrizzle. Fog.8 mph93%30.14 "Hg2 mi
8:00 AM34 °FDrizzle. Fog.9 mph100%30.11 "Hg2 mi
7:51 AM34 °FDrizzle. Fog.9 mph100%30.10 "Hg2 mi
7:00 AM34 °FDrizzle. Fog.10 mph100%30.08 "Hg5 mi
6:00 AM34 °FDrizzle. Fog.10 mph100%30.05 "Hg2 mi
5:00 AM34 °FDrizzle. Fog.9 mph100%30.02 "Hg2 mi
4:00 AM34 °FLight rain. Fog.12 mph93%30.00 "Hg4 mi
3:00 AM32 °FLight rain. Ice fog.13 mph100%29.99 "Hg5 mi
2:50 AM32 °FLight rain. Ice fog.13 mph100%29.99 "Hg5 mi
2:00 AM32 °FLight rain. Ice fog.13 mph100%30.00 "Hg5 mi
1:00 AM32 °FLight snow. Ice fog.12 mph100%30.00 "Hg2 mi
12:00 AM32 °FLight snow. Ice fog.16 mph100%30.01 "Hg2 mi
11:00 PM
Thu, Oct 27
32 °FLight snow. Ice fog.15 mph100%30.03 "Hg2 mi
10:00 PM32 °FLight snow. Ice fog.17 mph100%30.06 "Hg1 mi
9:00 PM32 °FLight snow. Ice fog.15 mph100%30.08 "Hg1 mi
8:00 PM32 °FLight snow. Ice fog.16 mph100%30.10 "Hg1 mi
7:00 PM32 °FLight snow. Low clouds.18 mph100%30.12 "Hg1 mi
6:00 PM32 °FLight snow. Dense fog.15 mph100%30.14 "Hg1 mi
5:00 PM34 °FLight snow. Mostly cloudy.16 mph93%30.17 "Hg4 mi
4:00 PM36 °FSnow flurries. Mostly cloudy.16 mph81%30.19 "Hg4 mi
3:00 PM37 °FLight snow. Mostly cloudy.17 mph70%30.22 "Hg15 mi
Weather by CustomWeather, © 2016

See weather overviewHow to use our weather pages